SCP
1 1 1 1 1 1 2 2 3 3 4 4 3 3 2 2 1 1 1 1 1 1 0 0 0 0 0 0 0 0 0 0 0 0 0 0 0 0 0 0 0 0 0
2 1 1 1 1 1 2 2 3 3 4 4 3 3 2 2 1 1 1 1 1 0 0 0 0 0 0 0 0 0 0 0 0 0 0 0 0 0 0 0 0 0 0
2 2 2 1 1 2 2 3 3 4 4 4 4 3 2 2 1 1 0 0 0 0 0 0 0 0 0 0 0 0 0 0 0 0 0 0 0 0 0 0 0 0 0
3 2 2 2 2 2 2 3 4 4 5 5 4 3 3 2 1 0 0 0 0 0 0 0 0 0 0 0 0 0 0 0 0 0 0 0 0 0 0 0 0 0 0
3 3 3 3 3 3 3 4 4 5 5 5 4 3 2 1 1 0 0 0 0 0 0 0 0 0 0 0 0 0 0 0 0 0 0 0 0 0 0 0 0 0 0
3 3 3 3 3 3 3 4 4 5 5 4 4 3 2 1 0 0 0 0 0 0 0 0 0 0 0 0 0 0 0 0 0 0 0 0 0 0 0 0 0 0 0
2 3 3 3 3 3 3 3 4 4 3 3 2 1 1 0 0 0 0 0 0 0 0 0 0 0 0 0 0 0 0 0 0 0 0 0 0 0 0 0 0 0 0
1 1 2 2 2 2 2 2 2 2 2 2 1 1 0 0 0 0 0 0 0 0 0 0 0 0 0 0 0 0 0 0 0 0 0 0 0 0 0 0 0 0 0
1 1 1 1 1 1 1 1 1 1 1 1 0 0 0 0 0 0 0 0 0 0 0 0 0 0 0 0 0 0 0 0 0 0 0 0 0 0 0 0 0 0 0
0 0 0 0 0 0 0 0 0 0 0 0 0 0 0 0 0 0 0 0 0 0 0 0 0 0 0 0 0 0 0 0 0 0 0 0 0 0 0 0 0 0 0
0 0 0 0 0 0 0 0 0 0 0 0 0 0 0 0 0 0 0 0 0 0 0 0 0 0 0 0 0 0 0 0 0 0 0 0 0 0 0 0 0 0 0
0 0 0 0 0 0 0 0 0 0 0 0 0 0 0 0 0 0 0 0 0 0 0 0 0 0 0 0 0 0 0 0 0 0 0 0 0 0 0 0 0 0 0
0 0 0 0 0 0 0 0 0 0 0 0 0 0 0 0 0 0 0 0 0 0 0 0 0 0 0 0 0 0 0 0 0 0 0 0 0 0 0 0 0 0 0
0 0 0 0 0 0 0 0 0 0 0 0 0 0 0 0 0 0 0 0 0 0 0 0 0 0 0 0 0 0 0 0 0 0 0 0 0 0 0 0 0 0 0
0 0 0 0 0 0 0 0 0 0 0 0 0 0 0 0 0 0 0 0 0 0 0 0 0 0 0 0 0 0 0 0 0 0 0 0 0 0 0 0 0 0 0
0 0 0 0 0 0 0 0 0 0 0 0 0 0 0 0 0 0 0 0 0 0 0 0 0 0 0 0 0 0 0 0 0 0 0 0 0 0 0 0 0 0 0
0 0 0 0 0 0 0 0 0 0 0 0 0 0 0 0 0 0 0 0 0 0 0 0 0 0 0 0 0 0 0 0 0 0 0 0 0 0 0 0 0 0 0
0 0 0 0 0 0 0 0 0 0 0 0 0 0 0 0 0 0 0 0 0 0 0 0 0 0 0 0 0 0 0 0 0 0 0 0 0 0 0 0 0 0 0
0 0 0 0 0 0 0 0 0 0 0 0 0 0 0 0 0 0 0 0 0 0 0 0 0 0 0 0 0 0 0 0 0 0 0 0 0 0 0 0 0 0 0
0 0 0 0 0 0 0 0 0 0 0 0 0 0 0 0 0 0 0 0 0 0 0 0 0 0 0 0 0 -0 0 0 0 0 0 0 0 0 0 0 0 0 0
0 0 0 0 0 0 0 0 0 0 0 0 0 0 0 0 0 0 0 0 0 0 0 0 0 0 0 0 0 -0 0 0 0 0 0 0 0 0 0 0 0 0 0
0 0 0 0 0 0 0 0 0 0 0 0 0 0 0 0 0 0 0 0 0 0 0 0 0 0 0 -0 -0 -0 0 0 0 0 0 0 0 0 0 0 0 0 0
0 0 0 0 0 0 0 0 0 0 0 0 0 0 0 0 0 0 0 0 0 0 0 0 0 0 0 0 0 0 0 0 0 0 0 0 0 0 0 0 0 0 0
0 0 0 0 0 0 0 0 0 0 0 0 0 0 0 0 0 0 0 0 0 0 0 0 0 0 0 0 0 0 0 0 0 0 0 0 0 0 -0 -0 0 0 0
0 0 0 -0 0 0 0 0 0 0 0 0 0 0 0 0 0 0 0 0 0 0 0 0 0 0 0 0 0 0 0 0 0 0 0 0 0 0 0 0 0 0 0
0 0 -0 -0 0 0 0 0 0 0 0 0 0 0 0 0 0 0 0 0 0 0 0 0 0 0 0 0 0 0 0 0 0 0 0 0 0 0 0 0 0 0 0
Wind_Speed
10 10 9 9 7 5 7 9 11 12 10 8 7 6 5 4 4 3 4 5 6 6 6 5 5 4 4 4 5 4 5 3 2 3 2 3 3 2 1 1 1 1 2
8 9 7 7 10 10 9 8 9 11 11 9 6 5 6 5 4 4 6 6 6 6 6 6 5 5 5 5 4 4 3 2 2 2 2 2 3 3 2 1 1 0 0
11 9 7 7 7 9 10 10 9 10 10 10 8 8 6 5 4 5 5 5 6 6 6 7 6 5 5 4 4 4 4 3 2 2 3 3 2 2 3 3 2 2 2
7 6 6 6 6 7 8 9 9 9 9 11 11 12 8 6 5 5 5 6 6 7 7 7 6 5 4 5 4 3 3 4 2 2 2 2 3 2 2 3 3 3 3
8 7 5 3 3 5 7 8 8 8 8 9 10 10 7 7 8 8 9 7 6 7 7 7 6 6 5 5 6 5 5 3 3 2 2 3 3 2 2 1 3 3 3
9 9 8 7 6 5 6 8 9 7 7 9 8 9 11 12 12 10 9 7 5 6 7 7 7 6 6 6 6 6 7 5 5 4 4 3 3 2 2 1 1 2 3
10 10 11 10 9 9 8 8 10 9 8 9 9 9 11 11 12 11 9 8 6 5 6 7 7 6 6 6 6 6 6 5 6 5 4 4 3 2 2 2 0 2 3
10 11 11 11 11 11 10 10 11 11 10 10 10 10 10 8 8 9 9 8 6 6 7 8 7 7 6 7 6 5 6 6 6 7 5 4 4 3 3 2 1 1 3
10 11 11 12 11 12 12 12 12 12 12 11 12 12 11 11 11 11 9 8 7 8 9 8 8 7 7 7 6 6 5 6 6 6 6 5 3 3 3 3 2 2 1
10 10 11 11 12 12 12 13 14 14 13 12 11 11 12 11 11 11 10 9 9 8 9 8 8 8 7 7 7 6 6 7 6 5 6 5 3 3 3 3 2 2 3
10 10 10 10 11 12 12 13 13 14 13 12 12 13 12 11 11 10 10 10 9 8 8 8 8 9 9 8 8 7 7 7 6 5 5 4 3 3 2 2 2 1 1
9 10 10 11 11 12 12 13 13 13 13 12 13 13 12 11 11 11 10 10 9 8 9 9 10 10 10 9 9 8 7 6 5 4 4 3 2 2 2 1 2 2 1
10 10 11 11 11 12 12 13 13 13 12 12 13 13 12 12 12 11 10 9 9 9 10 11 11 10 9 9 7 7 6 5 4 3 3 2 2 2 1 2 2 2 3
10 11 11 11 12 12 12 13 13 12 12 13 13 13 11 11 10 10 9 9 9 10 11 11 10 9 9 8 7 6 5 5 4 4 3 2 2 2 2 2 3 3 4
11 11 11 12 12 12 12 12 12 11 11 12 12 11 10 10 10 10 9 9 10 10 10 10 8 7 7 6 6 5 5 4 5 5 4 4 6 3 2 2 3 3 3
10 11 12 12 12 12 11 11 11 10 10 11 10 9 9 10 9 8 8 9 9 8 9 8 7 7 5 6 8 6 4 4 4 5 5 6 5 5 5 6 7 8 6
10 10 10 10 10 9 9 10 9 9 9 9 8 8 8 8 7 8 8 7 7 7 7 6 6 5 4 5 7 9 4 4 4 5 5 5 4 4 3 6 10 11 14
10 9 8 8 8 8 8 8 8 8 8 7 7 6 7 7 6 7 7 6 5 5 4 4 4 3 2 3 5 8 5 4 5 5 5 5 5 4 4 5 7 8 9
8 7 6 7 7 7 7 8 7 7 7 6 6 5 6 6 6 5 4 3 3 3 2 3 4 3 2 1 2 4 4 4 6 6 6 6 5 8 8 6 8 11 11
6 6 6 6 6 5 6 7 6 6 6 5 5 5 5 5 5 4 3 2 2 2 1 2 2 3 3 4 3 2 2 3 5 6 7 9 9 10 11 7 7 10 10
6 6 6 6 5 5 6 6 6 5 4 4 4 4 4 4 4 3 2 1 1 1 1 0 1 1 2 3 4 5 2 3 4 5 5 6 12 14 15 12 7 11 11
6 6 6 5 4 5 5 6 4 3 3 4 4 4 3 2 3 2 1 1 2 2 2 2 2 2 2 2 4 7 7 6 3 4 5 7 14 16 16 11 10 13 11
5 5 6 5 4 4 5 5 2 2 3 3 3 2 2 1 1 1 1 1 2 2 2 2 2 2 2 3 7 8 9 10 4 5 11 14 15 14 10 10 13 10 4
5 5 5 4 3 2 3 2 2 2 3 2 1 1 1 1 0 1 1 2 2 2 2 2 2 1 2 3 4 4 5 8 7 6 10 14 12 9 8 8 7 4 3
4 4 4 3 2 2 2 2 2 3 2 2 2 2 2 2 0 1 1 1 1 3 4 2 1 0 2 4 6 5 5 5 5 6 4 4 5 7 7 7 6 5 4
4 4 3 3 2 2 2 1 2 3 3 2 2 2 2 2 2 2 2 4 2 4 5 5 3 1 3 7 9 10 11 11 9 4 3 5 5 6 6 6 6 5 4
Wind_Direction
166 155 161 165 155 162 177 178 172 167 162 157 149 139 130 117 103 96 103 109 111 113 112 110 104 102 104 110 112 104 90 66 54 76 37 7 24 48 65 85 96 113 142
146 150 153 157 159 173 182 184 179 172 170 161 147 129 121 106 95 89 81 88 99 104 110 112 105 98 101 97 95 101 100 64 36 102 98 18 358 356 15 31 85 84 135
145 153 158 159 166 178 175 180 182 174 164 145 128 116 102 97 98 96 88 80 91 94 98 101 102 98 100 104 96 99 111 115 47 54 127 143 204 320 341 2 16 358 348
96 120 140 157 173 178 173 173 177 165 160 152 150 150 154 146 134 120 106 90 84 88 92 94 96 97 99 102 95 90 103 116 112 58 52 99 133 125 348 341 360 10 19
77 81 86 118 136 149 157 158 150 153 156 151 151 147 137 123 121 116 110 98 85 83 90 94 96 95 94 92 87 83 77 81 99 100 84 69 62 75 127 322 339 353 358
62 62 56 56 58 80 113 123 121 124 134 131 130 136 135 133 132 126 120 109 97 88 87 91 90 89 89 88 88 87 83 80 79 72 67 81 80 61 91 127 314 320 310
49 52 54 55 56 64 81 101 111 107 109 115 118 122 126 130 131 129 123 117 108 101 95 94 91 88 90 90 88 85 79 77 80 78 74 71 69 74 97 102 5 312 307
49 50 50 53 55 59 69 84 94 97 100 104 106 107 109 110 111 114 117 115 112 108 103 95 92 91 88 85 80 78 77 75 76 76 76 74 64 65 75 105 104 12 328
54 53 52 54 56 60 63 74 83 84 85 91 96 97 100 104 108 107 106 106 107 107 97 92 87 81 78 77 78 75 71 72 68 68 67 66 52 56 67 80 105 119 330
61 57 56 57 58 61 65 69 74 79 79 83 89 94 95 99 104 105 105 103 99 98 96 89 83 77 72 72 73 70 68 70 64 68 66 60 50 47 48 63 76 116 159
68 65 64 62 63 64 66 70 74 78 80 82 87 89 91 94 96 97 98 97 95 93 91 88 81 75 69 67 71 70 69 71 62 59 67 62 64 49 36 44 44 41 128
78 74 72 70 69 69 69 71 73 77 79 83 86 86 87 88 89 88 88 89 88 86 85 83 80 76 70 64 63 62 57 61 59 52 56 41 44 35 25 24 359 324 294
81 78 76 74 73 73 73 74 75 79 81 84 86 86 84 85 86 87 86 85 84 82 82 81 80 76 71 65 60 60 51 44 38 32 38 19 23 347 315 313 308 295 302
86 85 85 82 79 78 78 79 77 78 82 83 84 83 83 84 83 82 79 78 80 83 83 82 80 76 71 64 54 50 41 25 13 2 355 343 321 291 280 284 289 290 299
90 88 88 88 87 85 83 82 82 79 80 83 84 85 85 83 80 77 76 76 79 86 90 90 84 76 69 60 53 36 28 11 355 345 339 325 327 324 285 286 288 293 290
92 92 91 90 88 88 89 88 86 84 84 85 84 82 83 83 81 79 80 80 82 87 91 91 89 80 73 60 48 37 15 352 342 329 323 317 321 329 331 329 324 316 303
91 87 85 86 87 86 89 89 87 87 87 87 86 85 85 83 83 87 83 82 85 92 98 103 102 98 87 60 35 21 19 351 336 325 320 320 318 321 311 315 317 312 305
91 86 83 83 81 82 83 86 86 87 88 88 87 86 86 85 84 83 82 83 89 99 109 123 132 131 129 61 29 16 15 360 348 336 327 317 309 298 294 301 305 301 297
94 92 90 90 88 86 90 92 88 88 88 88 88 88 89 88 85 83 82 82 90 99 124 145 158 167 207 246 359 19 359 346 336 332 333 330 316 300 305 304 302 304 302
94 94 91 91 92 90 93 95 92 90 89 92 93 92 91 96 95 96 87 79 99 121 145 169 190 193 212 236 256 343 350 333 325 323 322 324 316 310 310 298 288 293 296
96 93 91 89 92 93 92 91 89 90 95 93 91 87 93 103 104 94 79 87 92 69 26 333 268 221 222 243 276 309 318 302 309 311 311 308 310 311 309 303 273 269 282
94 92 90 85 80 85 91 93 92 91 86 85 88 98 114 125 118 109 76 66 72 49 15 19 1 358 12 27 351 350 345 341 301 294 295 300 308 311 310 307 295 299 301
96 93 98 92 79 84 101 104 112 100 93 92 97 113 129 132 137 141 125 61 64 75 51 49 31 11 21 7 3 355 347 346 332 294 305 310 311 313 312 311 316 320 319
106 108 106 104 98 104 113 138 156 130 113 102 121 176 181 220 58 78 121 123 119 107 89 75 55 9 338 334 336 333 328 329 325 316 314 313 310 314 311 315 324 326 317
115 117 120 126 144 157 168 187 174 144 146 182 234 247 232 214 173 69 74 131 174 168 148 151 151 65 318 303 313 312 309 306 296 308 312 322 331 340 340 336 331 329 337
116 117 125 133 147 152 173 194 170 157 161 195 238 252 244 215 176 138 77 52 89 122 132 148 156 222 267 307 322 323 318 317 318 322 325 326 330 328 324 325 324 321 320